Location: Glens Falls
(43.3090°N, 73.6440°W)
Time: 05:09:05
(UTC-04:00)

SJ-11-01 - Pass Details

Date: 24 February 2018
Orbit: 685 x 701 km, 98.1° (Epoch: 19 June)

Event Time Altitude Azimuth Distance (km) Brightness Sun altitude
Exits shadow 19:32:50 48° 61° (ENE) 911 4.5 -21.7°
Drops below altitude 10° 19:37:10 10° 358° (N) 2,169 7.0 -22.5°
Sets 19:39:28 0° 353° (N) 3,089 7.8 -22.9°
